Lapse_Rate
5.9 5.9 5.8 6.1 6.1 6.2 6.4 6.3 6.2 6.3 6.3 6.3 6.3 6.4 6.5 6.5 6.5 6.5 6.4 6.3 6.2 6.2 6.5 6.6 6.5 6.6 6.7 6.9 7.1 7.0 6.7 6.2 6.5 6.5 6.3 6.2 6.3 6.2 6.3 6.5 6.5 6.2 6.1 6.3 6.5 6.9 7.5
5.9 5.8 5.9 6.1 6.2 6.2 6.3 6.3 6.2 6.1 6.1 6.2 6.2 6.3 6.5 6.4 6.4 6.5 6.5 6.4 6.2 6.1 6.2 6.2 6.3 6.3 6.5 6.5 6.9 7.0 7.0 6.5 6.2 6.2 5.9 5.9 6.1 6.2 6.0 6.3 6.0 6.2 6.4 6.6 7.0 7.3 6.8
6.1 6.2 6.1 6.0 6.1 6.0 6.2 6.6 6.2 6.1 6.1 6.2 6.4 6.4 6.5 6.5 6.3 6.5 6.6 6.4 6.2 6.2 6.4 6.5 6.5 6.6 6.8 6.4 6.5 6.7 6.9 6.7 6.4 6.1 5.9 5.9 5.5 5.5 5.6 6.1 6.1 6.1 6.1 6.6 7.4 6.8 6.8
6.1 6.2 6.1 6.1 6.0 5.8 6.2 6.2 6.1 6.1 6.3 6.2 6.3 6.6 6.6 6.4 6.2 6.3 6.4 6.2 6.0 6.1 6.4 6.5 6.5 6.7 7.1 6.8 6.6 6.7 6.5 6.2 6.2 5.9 6.2 6.0 5.6 5.6 5.7 5.8 5.9 5.9 5.9 6.1 6.9 6.8 6.7
6.3 6.2 6.2 6.1 6.2 5.9 6.1 6.1 6.1 6.1 6.2 6.4 6.4 6.8 6.4 6.2 5.8 6.2 6.4 6.0 5.8 6.0 6.3 6.3 6.3 6.3 7.0 6.6 6.4 6.3 6.6 6.4 6.0 5.9 6.0 6.0 5.7 5.5 6.1 5.9 5.5 5.9 6.0 6.2 6.2 7.1 6.8
6.3 6.2 6.2 6.2 6.1 5.8 6.0 5.9 6.3 6.3 6.2 6.4 6.5 6.7 6.5 6.1 5.9 6.0 6.0 5.7 5.7 5.9 6.3 6.1 6.2 6.0 6.7 6.4 6.4 6.6 6.5 6.5 6.2 5.8 5.8 5.8 5.7 5.8 6.4 6.2 5.7 6.2 6.2 6.2 6.1 7.2 6.9
6.3 6.0 6.1 6.2 6.0 5.7 5.6 5.9 6.1 6.3 6.3 6.4 6.6 6.4 6.3 6.1 5.6 5.6 6.0 5.5 5.6 5.8 6.3 6.0 6.4 5.8 6.8 6.7 6.5 7.0 6.4 6.5 6.3 6.3 6.3 5.8 5.9 6.6 6.7 6.2 6.4 6.3 6.3 6.3 6.9 7.1 6.4
6.2 6.3 6.1 6.2 6.0 5.8 5.7 6.0 6.0 5.8 6.1 6.2 6.2 6.2 6.3 6.1 5.6 5.3 5.4 4.8 4.7 4.9 6.1 7.0 6.8 6.6 6.6 6.7 7.1 6.7 6.5 6.6 6.8 6.7 6.5 6.4 7.1 6.8 6.4 6.6 6.5 6.6 6.5 6.6 6.6 6.9 7.0
6.2 6.1 6.1 5.9 5.9 5.5 5.8 5.8 5.7 5.4 5.7 5.8 5.9 6.0 6.3 6.1 5.7 5.4 5.2 4.8 4.8 4.7 4.6 5.3 6.6 6.8 6.1 6.4 6.7 6.8 6.8 6.9 7.0 7.1 6.6 6.5 7.4 7.1 6.7 6.8 6.8 6.8 6.7 6.9 6.7 6.6 6.7
5.9 6.0 6.1 5.9 5.8 5.8 5.6 5.6 5.6 5.2 5.5 5.9 5.5 5.7 5.8 5.8 5.4 5.1 5.1 5.0 4.9 4.5 4.3 5.1 5.8 6.2 6.4 6.7 6.8 7.1 7.1 7.0 7.1 7.3 6.8 6.4 6.9 7.0 7.0 6.8 7.0 6.9 7.2 7.0 6.7 6.8 6.4
5.8 5.9 5.9 5.9 5.8 5.7 5.6 5.5 5.4 5.3 5.5 5.7 5.7 5.8 5.6 5.6 5.1 4.9 4.7 4.7 4.5 4.4 3.4 5.9 5.7 5.9 6.2 6.6 6.9 7.0 7.1 7.0 7.0 6.8 6.7 6.7 6.8 6.8 6.7 6.9 7.0 6.9 7.2 7.0 6.8 6.8 6.9
5.3 5.6 5.7 5.6 5.6 5.8 5.8 5.7 5.5 5.4 5.5 5.6 5.6 5.7 5.2 5.0 4.9 4.7 4.7 4.5 4.6 4.0 3.0 6.0 5.7 6.0 6.2 6.6 6.7 6.8 6.9 7.0 6.7 6.5 6.6 6.7 6.9 6.8 6.8 6.7 6.8 7.0 7.0 7.0 6.9 6.9 6.4
5.2 5.3 5.5 5.5 5.7 5.7 5.8 6.0 5.7 5.6 5.6 5.6 5.3 5.3 5.2 4.9 4.6 4.6 4.6 4.5 4.2 3.1 5.7 5.4 5.6 5.9 5.9 6.4 6.4 6.7 6.7 6.7 6.6 6.6 6.7 6.8 6.6 6.7 6.9 6.6 6.7 6.7 6.8 6.2 6.2 5.8 6.6
5.3 5.3 5.5 5.4 5.7 5.8 6.0 5.9 5.7 5.6 5.5 5.6 5.5 5.3 5.1 5.0 4.6 4.3 4.3 4.2 3.4 4.3 5.1 5.1 6.0 6.1 6.1 6.2 6.3 6.6 6.7 6.6 6.9 7.0 6.6 6.2 5.8 6.9 6.5 6.9 6.8 6.3 6.9 7.0 7.2 7.0 7.1
5.4 5.4 5.3 5.3 5.2 5.4 5.4 5.2 5.1 5.2 5.3 5.4 5.2 5.2 5.1 4.4 4.4 4.3 4.3 3.4 4.4 4.5 4.5 5.1 5.8 5.1 5.5 5.9 6.0 5.9 6.1 6.5 6.6 6.6 6.6 6.5 6.0 6.3 6.5 6.5 6.6 6.5 6.4 7.0 7.6 7.5 7.7
5.4 5.5 5.3 5.3 5.2 5.0 5.2 5.3 5.3 5.1 5.3 5.2 5.1 4.8 4.4 4.2 4.4 4.3 3.7 3.4 4.0 4.0 4.5 4.9 4.6 4.7 4.8 5.4 5.7 5.7 5.6 5.7 5.8 5.8 5.9 5.6 5.1 5.6 5.7 5.6 5.8 6.2 6.6 6.6 7.0 7.4 7.3
5.8 5.6 5.5 5.6 5.6 5.4 5.4 5.8 5.6 5.4 5.1 5.0 4.7 4.4 4.1 4.2 4.2 3.8 3.2 3.8 4.3 4.3 4.8 4.5 4.5 4.5 4.7 4.6 4.7 4.8 4.9 5.3 5.7 5.7 5.7 5.3 5.1 5.3 5.3 5.0 5.3 5.8 6.3 6.8 7.1 7.3 7.6
5.7 5.5 5.1 5.6 5.3 5.6 5.7 5.7 5.4 4.8 4.6 4.4 4.4 4.2 4.1 3.9 3.8 3.7 3.8 4.5 4.4 4.3 4.3 4.3 4.2 4.2 4.1 4.0 3.9 4.0 4.2 4.3 4.6 4.7 4.7 5.0 5.6 5.5 5.8 6.0 6.0 6.0 5.8 6.4 6.9 7.1 7.7
5.8 5.6 5.6 5.6 5.5 5.5 5.5 5.2 4.6 4.4 4.3 4.2 4.3 4.0 3.9 3.7 3.7 4.0 4.1 4.1 4.1 4.0 4.0 4.1 4.1 3.9 3.8 3.9 3.9 3.9 3.9 4.0 4.2 4.4 4.6 4.7 4.7 5.6 5.8 5.9 6.2 6.5 6.7 7.3 7.5 7.6 7.3
5.4 5.2 5.3 5.3 5.3 5.4 5.1 4.5 4.3 4.2 4.4 4.1 4.1 3.9 4.0 3.6 3.7 3.9 3.9 3.8 3.8 4.1 4.0 3.7 3.5 3.5 3.7 3.9 4.1 3.8 3.9 3.9 4.2 4.5 4.9 5.3 5.3 5.6 6.3 6.6 6.6 6.8 7.3 7.5 7.3 7.5 7.2
5.3 5.2 5.1 4.9 4.7 4.6 4.4 4.3 4.2 4.0 4.0 3.8 3.8 3.6 3.7 3.6 3.6 3.7 3.7 3.4 3.5 3.6 3.7 3.6 3.8 4.1 4.0 3.6 3.7 4.1 4.3 4.5 4.7 4.8 4.9 5.4 6.0 6.5 6.9 7.1 7.4 7.6 7.6 7.6 7.2 7.7 7.2
5.0 4.8 4.7 4.4 4.2 4.1 4.1 4.1 4.1 3.9 3.8 3.6 3.7 4.3 4.1 4.1 3.9 3.7 3.6 3.7 3.7 3.6 3.5 3.7 3.8 4.0 3.8 3.6 3.8 3.5 4.1 4.7 4.6 4.8 5.3 5.7 6.0 7.0 7.4 8.2 7.6 7.2 7.4 7.2 7.0 7.4 7.8
4.4 4.3 4.3 4.4 4.3 4.1 3.8 3.5 3.4 3.6 3.9 4.4 4.2 4.0 3.7 3.5 3.6 3.6 3.9 3.7 3.6 3.8 3.6 3.6 3.8 3.8 4.0 4.6 4.7 4.9 5.2 5.5 6.1 6.1 6.4 7.1 7.3 7.7 7.8 7.8 7.6 7.5 8.0 8.2 7.9 8.1 8.1
4.5 4.5 4.4 4.2 3.9 3.6 3.8 4.0 4.2 4.3 4.2 4.2 4.0 3.7 3.4 3.5 3.7 3.9 3.8 3.8 3.7 3.6 3.7 4.6 4.9 4.8 5.0 4.9 5.3 5.9 6.2 6.9 7.4 7.6 8.1 8.4 8.5 7.8 7.8 7.6 7.5 8.1 8.0 8.0 8.2 8.2 8.4
4.2 4.0 4.2 4.2 4.1 4.2 4.2 4.2 4.3 4.3 4.2 4.0 3.8 3.6 3.7 3.9 4.1 4.0 3.8 4.0 4.3 4.4 4.9 5.1 5.6 5.9 5.8 6.0 6.4 6.7 6.8 7.8 8.0 7.9 8.4 8.3 8.1 7.7 7.5 7.6 7.7 7.7 8.3 8.4 8.2 7.9 8.2
4.3 4.3 4.3 4.3 4.4 4.5 4.4 4.3 4.2 4.1 3.9 3.8 3.8 3.9 4.0 3.9 4.4 4.4 4.6 4.8 5.3 6.0 6.4 6.5 6.4 6.5 6.8 7.0 7.3 7.8 7.7 7.7 7.7 7.7 8.2 7.5 7.5 7.4 7.2 7.6 7.4 8.2 8.2 7.9 7.3 7.8 8.4
4.8 4.9 4.9 4.8 4.6 4.3 4.1 4.0 3.8 3.8 3.7 3.5 3.7 3.8 3.9 4.4 5.1 5.4 5.9 6.3 6.6 6.5 6.7 6.8 6.8 7.4 7.4 7.4 7.4 7.6 7.6 7.7 7.7 7.7 7.7 7.7 7.8 7.4 7.4 7.4 7.3 7.6 7.6 7.4 7.1 7.8 8.1
5.2 5.1 4.9 4.7 4.4 4.3 4.0 3.8 3.6 3.4 3.5 3.7 3.8 4.5 4.9 5.7 6.3 6.2 6.6 6.7 6.7 6.6 6.7 6.9 7.2 7.2 7.4 7.3 7.7 7.9 7.8 7.8 7.4 7.4 7.3 7.2 7.1 7.3 7.1 7.3 7.1 7.1 7.4 7.4 7.2 7.3 7.6
5.1 5.0 4.9 4.6 4.2 3.7 3.5 3.4 3.5 3.7 4.4 4.9 5.3 5.4 5.9 6.2 6.5 6.7 6.7 7.0 6.7 6.8 7.0 7.1 7.2 7.6 7.8 7.8 8.0 7.6 7.4 7.2 7.4 7.1 7.4 7.3 6.9 6.5 6.1 6.8 7.4 7.1 7.2 7.3 7.2 7.3 7.8
Wind_Speed
15 15 13 13 13 13 12 10 11 15 17 18 17 16 17 19 22 24 26 27 27 27 27 23 18 16 7 5 9 7 10 3 2 2 2 0 3 1 1 2 3 6 5 3 8 12 7
16 16 14 14 15 14 13 11 12 13 14 13 12 13 16 20 23 25 28 30 30 30 24 22 16 8 2 5 4 5 7 7 5 4 2 2 3 4 3 3 2 4 4 10 10 7 8
19 18 16 16 17 15 14 13 13 13 11 8 10 13 16 21 24 26 28 33 35 31 25 20 10 2 2 16 2 13 5 4 2 3 2 2 2 1 2 6 1 5 7 8 12 4 5
20 20 18 19 20 17 15 15 13 12 7 6 7 12 17 21 26 28 29 32 37 33 21 9 4 3 7 4 6 9 2 3 2 3 4 3 2 2 3 3 7 6 2 2 6 0 3
23 22 21 20 20 18 18 17 13 10 6 5 6 11 14 20 25 27 30 36 34 21 4 8 3 1 9 8 2 3 5 3 5 3 3 2 3 5 1 3 4 2 5 5 6 1 4
25 24 24 22 21 20 18 17 13 9 6 6 8 10 13 18 23 29 33 36 24 8 3 2 2 3 4 2 5 10 7 7 6 2 5 2 4 2 2 4 5 6 5 6 6 5 5
26 24 24 24 23 22 20 17 14 11 9 6 6 8 14 18 23 28 14 5 6 6 7 5 20 10 24 11 11 6 3 2 4 2 6 2 2 9 13 10 8 4 5 9 14 8 5
27 25 25 25 25 23 21 18 16 12 9 5 5 8 12 19 23 19 4 5 2 6 12 16 26 20 21 3 6 8 6 6 5 7 5 1 9 12 5 8 8 7 9 14 11 9 5
29 29 28 26 24 24 22 19 17 14 10 5 4 7 13 21 22 4 2 2 8 3 5 10 4 5 4 11 6 6 8 4 4 5 6 7 8 2 7 5 5 6 6 7 11 4 5
29 29 28 26 26 23 22 21 19 15 11 7 3 4 11 19 3 3 2 9 11 3 4 8 4 5 5 3 5 6 5 4 1 5 5 6 8 5 3 5 5 3 8 8 7 3 12
29 29 28 27 26 25 27 23 21 16 12 7 0 6 10 8 0 2 5 15 10 1 6 4 1 1 1 3 5 2 2 2 4 5 2 7 3 8 7 7 5 14 5 7 8 7 3
27 27 26 25 26 27 26 24 20 16 12 7 5 5 6 2 2 1 14 10 1 4 8 5 3 6 4 1 3 4 2 2 2 3 4 8 2 5 6 8 7 5 5 5 6 3 8
29 27 25 25 27 26 25 22 21 18 15 10 6 5 5 3 1 9 10 3 3 5 6 2 3 5 5 4 4 1 3 3 4 5 4 6 5 4 8 14 5 5 2 5 3 3 12
29 28 26 26 28 28 26 26 23 19 14 11 8 6 2 4 9 9 3 5 6 5 9 5 5 7 3 8 3 6 4 3 3 2 3 3 22 3 3 3 5 5 6 6 7 9 15
28 26 27 27 28 30 29 26 23 18 14 10 5 2 1 3 7 3 3 3 7 7 5 9 9 6 4 2 5 8 6 3 4 8 3 4 16 7 6 7 2 6 8 10 18 19 14
29 29 30 30 30 28 26 21 19 16 12 9 2 1 2 0 6 2 4 6 5 2 5 6 3 3 4 7 8 8 2 2 4 5 10 3 9 12 16 7 9 12 4 11 4 12 22
28 32 34 34 33 29 23 20 17 13 9 6 3 2 2 6 4 2 4 6 4 6 1 2 4 4 5 5 4 4 6 10 4 5 13 11 6 12 13 5 5 7 9 5 5 4 11
34 32 32 30 29 25 22 19 16 12 9 3 3 1 2 6 3 2 3 4 1 5 4 2 5 9 9 6 7 6 8 7 14 11 13 15 9 16 28 31 25 22 24 21 13 16 14
32 31 31 28 25 22 20 17 14 12 5 3 3 0 3 3 3 3 1 2 2 2 3 2 4 3 5 4 6 6 7 4 15 12 5 7 4 10 10 9 9 9 7 10 12 6 16
30 29 28 26 24 20 18 15 12 10 8 3 3 1 2 2 0 2 2 2 2 7 6 3 3 4 7 2 5 9 12 7 11 8 14 10 6 13 15 14 17 27 28 25 17 7 5
27 27 24 23 22 20 17 14 13 11 8 3 2 3 1 2 3 3 1 1 2 2 1 4 2 3 4 4 5 8 9 17 15 14 6 4 8 13 16 21 24 27 29 28 23 20 15
24 23 22 21 19 17 16 14 12 10 9 2 3 2 1 3 2 3 4 4 4 3 3 1 5 6 5 5 10 17 12 12 12 12 3 5 12 13 17 24 24 28 29 26 21 23 24
20 20 19 18 17 16 14 12 12 11 5 2 0 2 3 1 2 3 3 3 1 2 4 3 2 5 5 10 6 13 15 17 17 17 20 14 7 7 15 20 21 17 21 17 17 19 11
18 16 17 15 15 14 13 11 9 9 5 3 1 2 3 3 3 3 1 1 2 1 3 6 6 4 4 9 10 9 12 17 19 22 20 18 18 9 13 13 17 7 3 8 13 14 9
16 16 15 15 15 15 13 11 9 8 7 3 2 2 2 2 2 3 4 2 2 4 3 5 6 2 7 6 3 5 8 8 9 16 21 16 12 7 6 11 13 13 14 7 6 8 3
14 14 14 15 14 14 13 11 9 8 9 3 2 2 3 4 4 1 2 1 2 2 4 4 4 6 3 0 1 4 3 6 6 10 10 6 12 8 9 4 6 3 5 7 4 4 3
12 13 14 14 13 13 12 11 11 9 8 4 1 3 3 2 2 4 3 3 2 1 3 4 4 4 2 1 1 2 3 3 4 5 10 9 6 8 10 5 4 7 10 8 2 4 1
13 14 14 14 15 15 14 11 11 9 7 4 1 2 3 2 4 3 4 4 0 3 3 3 4 3 1 3 1 3 3 2 5 10 11 4 5 4 4 4 5 17 15 3 3 6 6
16 15 16 17 17 17 15 13 14 13 11 7 1 1 3 2 4 2 6 9 9 9 4 3 4 2 2 2 2 3 3 3 4 6 3 2 2 4 3 6 16 17 13 11 10 6 5
Wind_Direction
248 254 261 266 275 279 285 298 307 311 316 320 322 327 332 329 327 323 317 316 315 314 313 314 319 330 352 341 251 279 297 40 320 233 274 306 43 33 228 265 320 191 255 245 256 276 271
245 252 255 260 264 270 274 288 298 302 310 316 324 331 330 329 325 321 319 318 316 311 309 304 307 325 44 294 264 336 18 327 238 250 232 207 168 203 238 243 153 275 275 284 285 253 227
246 249 250 256 261 260 267 279 286 291 302 310 323 328 331 330 323 323 321 319 314 310 311 300 287 232 159 244 269 322 293 232 232 225 238 188 188 60 204 295 203 253 291 316 274 261 285
242 245 245 250 253 258 260 271 273 276 282 298 319 326 332 330 325 323 321 315 307 311 317 325 181 183 240 239 265 293 284 338 294 218 167 225 198 207 180 292 343 318 323 266 283 318 267
240 242 243 244 251 254 258 266 266 264 260 282 315 322 330 325 323 321 321 313 309 312 339 127 115 177 267 307 209 313 345 291 297 257 280 242 149 202 39 93 351 293 257 239 298 325 242
238 241 242 243 245 254 252 258 247 238 239 264 299 319 325 326 324 323 322 312 303 319 118 200 240 316 276 328 316 314 277 244 258 303 342 59 44 203 78 123 232 233 241 247 263 278 272
235 235 242 243 244 246 247 243 238 229 220 249 300 323 323 326 325 328 336 4 9 343 31 221 265 267 279 294 313 270 212 177 171 149 189 266 265 230 220 208 230 240 263 266 266 260 244
232 232 237 242 241 240 239 225 221 216 223 246 285 312 325 326 325 330 4 73 73 258 297 264 254 254 255 356 299 278 147 171 149 202 143 87 238 243 248 243 235 245 259 270 289 264 238
226 230 235 234 232 233 225 209 210 208 210 219 278 324 332 326 326 51 72 85 291 283 275 290 253 213 240 151 227 263 158 178 178 188 193 176 233 320 201 251 230 225 214 256 253 284 278
225 228 227 226 227 222 206 197 197 198 195 197 228 339 337 330 58 338 93 323 320 185 313 279 268 264 136 200 257 219 213 159 233 234 205 221 267 250 235 220 234 249 229 259 285 298 283
223 226 225 220 218 208 196 188 188 185 184 179 150 9 351 26 235 73 305 308 300 71 309 269 263 251 96 186 309 31 195 64 228 238 196 245 255 285 275 250 181 276 235 255 264 252 335
224 223 222 217 208 197 185 177 178 175 165 143 99 43 356 23 341 324 313 307 327 49 248 289 33 349 354 279 295 311 159 66 231 254 240 234 239 214 235 256 205 269 321 294 259 209 254
221 223 219 215 196 183 172 170 159 146 138 129 100 53 67 3 221 340 320 25 50 192 295 301 4 354 337 282 297 251 224 203 209 307 305 325 258 237 241 279 252 201 58 287 295 207 244
228 226 209 196 182 169 162 145 140 135 128 116 87 49 17 242 281 328 13 70 204 239 266 27 355 314 264 9 346 338 310 281 269 236 304 257 300 270 31 167 274 204 209 225 262 263 272
218 209 194 177 167 153 143 138 132 126 116 95 65 47 2 247 210 177 106 193 214 214 339 348 340 334 291 105 358 21 352 289 14 18 284 318 265 327 347 325 318 327 236 247 254 260 262
211 195 167 149 139 132 124 123 120 115 104 88 98 110 252 182 166 115 138 222 244 56 27 12 301 349 285 347 356 2 353 264 29 94 34 14 312 303 312 293 265 243 280 283 275 265 262
137 135 133 131 124 123 124 122 121 115 116 134 98 109 249 145 57 101 205 214 265 12 357 225 246 266 274 310 289 306 262 320 351 350 332 305 224 291 326 267 357 325 299 301 296 248 269
125 127 124 119 124 126 129 129 127 133 147 122 123 162 315 128 159 202 206 194 337 234 215 291 269 269 267 286 298 265 257 231 336 351 313 285 277 270 261 270 271 269 268 265 255 264 258
122 126 122 125 130 130 131 138 142 149 150 118 116 126 339 84 208 215 248 268 253 230 238 220 252 265 26 320 297 256 274 327 315 299 273 320 238 281 275 267 257 251 281 277 293 282 257
127 128 126 126 127 133 135 134 133 122 113 99 112 118 321 150 137 219 154 218 244 230 270 277 314 357 10 327 266 290 306 317 335 287 289 301 254 261 276 283 296 288 283 286 278 264 268
120 120 126 131 133 134 136 140 139 140 136 105 127 190 177 195 256 184 162 349 240 259 304 47 278 277 289 278 298 269 308 314 316 303 282 264 264 276 274 277 273 266 266 266 262 260 264
130 133 137 138 137 143 149 152 152 149 133 86 137 149 102 164 178 170 186 217 219 259 226 276 312 316 307 258 268 290 288 280 281 295 279 289 280 288 282 275 273 268 267 255 250 265 272
137 140 145 148 153 154 152 155 162 168 137 119 141 38 102 298 160 131 215 192 92 25 313 112 330 305 270 279 283 286 275 271 258 259 270 281 265 264 273 279 290 271 246 231 244 244 247
151 159 154 149 152 160 164 163 149 153 123 119 111 100 111 214 201 207 207 47 282 139 236 281 282 238 264 313 298 274 264 260 257 253 242 251 261 265 271 289 275 251 303 240 234 260 248
163 161 161 166 172 173 165 161 158 147 126 101 117 119 126 193 247 277 267 265 327 300 257 247 260 227 288 292 290 308 290 262 251 247 252 223 240 261 251 251 286 298 278 252 202 262 196
166 173 181 182 174 170 165 168 168 161 133 97 110 108 102 115 249 235 113 174 243 266 327 268 308 293 290 125 81 240 268 323 309 327 322 354 217 248 283 275 247 261 344 342 348 274 267
188 195 196 190 183 181 173 186 183 167 159 113 105 121 101 143 257 153 191 183 168 169 240 279 275 284 187 205 267 302 275 263 269 301 330 311 308 256 270 264 290 329 331 322 253 294 24
211 211 207 208 198 188 189 195 183 175 174 110 144 146 117 169 277 210 186 179 225 173 186 264 8 334 38 24 248 250 238 290 306 301 292 284 314 341 323 277 290 353 316 338 294 302 295
229 224 219 215 206 197 192 194 198 184 180 131 59 41 125 166 235 229 223 230 197 199 172 227 215 132 225 70 315 327 312 286 272 288 306 299 107 284 262 273 308 312 291 275 259 266 273